Weather Roundup
Issued by NWS Springfield, MO

Home | Current Version | Previous Version | Text Only | Print | Product List | Glossary On
Versions: 1 2 3 4 5 6 7 8 9 10 11 12 13 14 15 16 17 18 19 20 21 22 23 24 25 26 27 28 29 30 31 32 33 34 35 36 37 38 39 40 41 42 43 44 45 46 47 48 49 50
451
NZUS99 KSGF 230607
HRRSGF

HOURLY WEATHER
NATIONAL WEATHER SERVICE SPRINGFIELD MO
100 AM CDT WED AUG 23 2017

......SGF CWA......

CITY           SKY/WX    TMP DP  RH WIND       PRES   REMARKS
SPRINGFIELD    PTCLDY    68  64  87 N7        30.12R
6HR MIN TEMP:  68; 6HR MAX TEMP:  78;

JOPLIN         PTCLDY    70  66  87 NE6       30.12S
6HR MIN TEMP:  70; 6HR MAX TEMP:  79;

WEST PLAINS    PTCLDY    69  64  84 N5        30.11R
6HR MIN TEMP:  68; 6HR MAX TEMP:  79;

ROLLA          CLEAR     63  59  87 N5        30.13R
6HR MIN TEMP:  63; 6HR MAX TEMP:  77;

OSAGE BEACH    CLEAR     64  58  80 CALM      30.13R
BRANSON        CLOUDY    73  68  83 N5        30.11S

......SURROUNDING SGF CWA......

CITY           SKY/WX    TMP DP  RH WIND       PRES   REMARKS
CHANUTE        CLEAR     65  58  78 N7        30.15R
PARSONS        MOCLDY    67  60  78 N5        30.15R
COFFEYVILLE    CLOUDY    68  63  84 N9        30.12R
EMPORIA        CLEAR     60  55  83 NE5       30.16S
GROVE OK       CLOUDY    75  70  83 NE6       30.10R
ROGERS AR      CLOUDY    74  70  87 NE7       30.11R
HARRISON AR    CLOUDY    74  71  91 NE7       30.10S
NEAR YELLVILLE CLOUDY    75  66  73 NE6       30.05S

......KANSAS AND MISSOURI......

CITY           SKY/WX    TMP DP  RH WIND       PRES   REMARKS
KANSAS CTY INT CLEAR     59  53  80 NE5       30.16R
DOWNTOWN KC    CLEAR     64  55  72 W3        30.16R
COLUMBIA       CLEAR     63  53  70 N9        30.13R
SEDALIA        CLEAR     61  59  93 N7        30.15R
ST JOSEPH      CLEAR     54  54 100 CALM      30.17R
ST LOUIS       CLEAR     66  57  72 N5        30.09R
SPIRIT OF STL  CLEAR     61  60  97 SW3       30.09R
KIRKSVILLE     CLEAR     54  32  43 CALM      30.15R
WICHITA        PTCLDY    67  57  70 NE8       30.16R
TOPEKA         CLEAR     60  57  89 CALM      30.17R
OLATHE         CLEAR     63  54  72 N6        30.16R

......TENNESSEE......

CITY           SKY/WX    TMP DP  RH WIND       PRES   REMARKS
MEMPHIS        CLOUDY    79  71  76 SE6       30.03F
NASHVILLE      CLOUDY    73  71  93 W6        30.01S

......ARKANSAS.......

CITY           SKY/WX    TMP DP  RH WIND       PRES   REMARKS
FAYETTEVILLE   MOCLDY    74  73  97 CALM      30.08F
FT SMITH       LGT RAIN  74  73  97 VRB5      30.05F
LITTLE ROCK    CLOUDY    78  71  79 E6        30.04R

......OKLAHOMA.......

CITY           SKY/WX    TMP DP  RH WIND       PRES   REMARKS
TULSA          CLOUDY    78  71  79 NE5       30.07R
PONCA CITY     CLOUDY    72  62  71 NE12      30.12R
MCALESTER      LGT RAIN  74  72  93 N6        30.05F
OKLAHOMA CITY  CLOUDY    70  70 100 CALM      30.10R

......IOWA............

CITY           SKY/WX    TMP DP  RH WIND       PRES   REMARKS
DES MOINES     CLEAR     60  55  83 CALM      30.14R
QUAD CITIES    CLEAR     57  52  83 CALM      30.08R

......ILLINOIS........

CITY           SKY/WX    TMP DP  RH WIND       PRES   REMARKS
QUINCY         CLEAR     59  54  83 NW5       30.11S
CHICAGO        PTCLDY    64  51  62 W8        30.01S




USA.gov is the U.S. government's official web portal to all federal, state and local government web resources and services.